When you browse on this site, cookies collect data to enhance your experience and personalize the content and advertising you see.
Visit our Privacy Policy to learn more. By continuing to use the site, you agree to this use of cookies and data.
  • In United Kingdom
  • List of Countries
  • For 7 days
  • Water Temperature
  • Satellite Maps
  • Weather Map
  • Weather Widgets
  • user-avatar
    Login

    Hourly Weather Brecon

    Today, 22 April, Monday

    Time Temperature Precipitation Wind Pressure Humidity
    00:00 +12°C° 0 mm 2 mps 742 mmHg 83%
    01:00 +10°C° 0 mm 2 mps 742 mmHg 85%
    02:00 +10°C° 0 mm 2 mps 741 mmHg 86%
    03:00 +9°C° 0 mm 2 mps 740 mmHg 87%
    04:00 +9°C° 0 mm 2 mps 740 mmHg 86%
    05:00 +8°C° 0 mm 3 mps 739 mmHg 84%
    06:00 +9°C° 0 mm 3 mps 739 mmHg 77%
    07:00 +10°C° 0 mm 4 mps 739 mmHg 72%
    08:00 +12°C° 0 mm 4 mps 738 mmHg 67%
    09:00 +14°C° 0 mm 4 mps 738 mmHg 61%
    10:00 +15°C° 0 mm 4 mps 737 mmHg 62%
    11:00 +17°C° 0 mm 5 mps 737 mmHg 62%
    12:00 +19°C° 0 mm 4 mps 737 mmHg 62%
    13:00 +19°C° 0.1 mm 5 mps 736 mmHg 61%
    14:00 +20°C° 0.1 mm 5 mps 736 mmHg 59%
    15:00 +20°C° 0.1 mm 5 mps 735 mmHg 58%
    16:00 +17°C° 0 mm 5 mps 735 mmHg 65%
    17:00 +17°C° 0 mm 4 mps 735 mmHg 71%
    18:00 +16°C° 0 mm 3 mps 735 mmHg 78%
    19:00 +14°C° 0 mm 3 mps 735 mmHg 82%
    20:00 +14°C° 0 mm 2 mps 735 mmHg 85%
    21:00 +12°C° 0 mm 2 mps 735 mmHg 89%
    22:00 +12°C° 0 mm 2 mps 734 mmHg 87%
    23:00 +12°C° 0 mm 2 mps 734 mmHg 86%

    Tomorrow, 23 April, Tuesday

    Time Temperature Precipitation Wind Pressure Humidity
    00:00 +12°C° 0 mm 2 mps 734 mmHg 84%
    01:00 +12°C° 0 mm 2 mps 733 mmHg 84%
    02:00 +12°C° 0 mm 2 mps 733 mmHg 83%
    03:00 +12°C° 0 mm 2 mps 732 mmHg 83%
    04:00 +11°C° 0 mm 3 mps 732 mmHg 84%
    05:00 +11°C° 0 mm 4 mps 732 mmHg 86%
    06:00 +10°C° 0 mm 5 mps 732 mmHg 87%
    07:00 +12°C° 0 mm 4 mps 732 mmHg 84%
    08:00 +14°C° 0 mm 4 mps 731 mmHg 80%
    09:00 +15°C° 0 mm 4 mps 731 mmHg 77%
    10:00 +17°C° 0.1 mm 5 mps 731 mmHg 73%
    11:00 +19°C° 0.1 mm 5 mps 731 mmHg 70%
    12:00 +20°C° 0.1 mm 5 mps 731 mmHg 66%
    13:00 +20°C° 0.4 mm 5 mps 731 mmHg 67%
    14:00 +20°C° 0.4 mm 5 mps 731 mmHg 69%
    15:00 +20°C° 0.4 mm 5 mps 731 mmHg 70%
    16:00 +19°C° 0.1 mm 4 mps 730 mmHg 74%
    17:00 +18°C° 0.1 mm 3 mps 730 mmHg 77%
    18:00 +18°C° 0.1 mm 2 mps 730 mmHg 81%
    19:00 +17°C° 0.1 mm 2 mps 730 mmHg 85%
    20:00 +14°C° 0.1 mm 3 mps 730 mmHg 89%
    21:00 +13°C° 0.1 mm 3 mps 729 mmHg 94%
    22:00 +12°C° 0 mm 3 mps 729 mmHg 94%
    23:00 +12°C° 0 mm 3 mps 729 mmHg 94%

    Day after tomorrow, 24 April, Wednesday

    Time Temperature Precipitation Wind Pressure Humidity
    00:00 +11°C° 0 mm 3 mps 729 mmHg 94%
    01:00 +11°C° 0 mm 3 mps 728 mmHg 94%
    02:00 +10°C° 0 mm 4 mps 728 mmHg 94%
    03:00 +8°C° 0 mm 4 mps 727 mmHg 94%
    04:00 +8°C° 0.3 mm 4 mps 727 mmHg 95%
    05:00 +10°C° 0.3 mm 4 mps 727 mmHg 95%
    06:00 +10°C° 0.3 mm 4 mps 727 mmHg 95%
    07:00 +10°C° 0.8 mm 4 mps 727 mmHg 95%
    08:00 +8°C° 0.8 mm 5 mps 727 mmHg 94%
    09:00 +8°C° 0.8 mm 6 mps 728 mmHg 93%
    10:00 +9°C° 0.4 mm 6 mps 728 mmHg 89%
    11:00 +10°C° 0.4 mm 7 mps 728 mmHg 85%
    12:00 +11°C° 0.4 mm 7 mps 729 mmHg 81%
    13:00 +11°C° 0.2 mm 7 mps 729 mmHg 77%
    14:00 +11°C° 0.2 mm 8 mps 729 mmHg 73%
    15:00 +12°C° 0.2 mm 8 mps 730 mmHg 69%
    16:00 +11°C° 0.1 mm 7 mps 729 mmHg 72%
    17:00 +11°C° 0.1 mm 6 mps 729 mmHg 75%
    18:00 +10°C° 0.1 mm 5 mps 729 mmHg 78%
    19:00 +9°C° 0 mm 5 mps 729 mmHg 80%
    20:00 +8°C° 0 mm 5 mps 729 mmHg 83%
    21:00 +7°C° 0 mm 5 mps 729 mmHg 85%
    22:00 +7°C° 0.1 mm 6 mps 729 mmHg 86%
    23:00 +7°C° 0.1 mm 6 mps 728 mmHg 87%

    25 April, Thursday

    Time Temperature Precipitation Wind Pressure Humidity
    00:00 +6°C° 0.1 mm 7 mps 728 mmHg 87%
    01:00 +6°C° 1.3 mm 7 mps 728 mmHg 89%
    02:00 +7°C° 1.3 mm 6 mps 728 mmHg 91%
    03:00 +8°C° 1.3 mm 6 mps 728 mmHg 92%
    04:00 +7°C° 0.1 mm 5 mps 728 mmHg 92%
    05:00 +7°C° 0.1 mm 5 mps 728 mmHg 92%
    06:00 +6°C° 0.1 mm 5 mps 728 mmHg 92%
    07:00 +7°C° 0 mm 6 mps 728 mmHg 87%
    08:00 +8°C° 0 mm 6 mps 728 mmHg 83%
    09:00 +9°C° 0 mm 7 mps 728 mmHg 79%
    10:00 +9°C° 0.2 mm 8 mps 729 mmHg 76%
    11:00 +10°C° 0.2 mm 9 mps 729 mmHg 72%
    12:00 +9°C° 0.2 mm 10 mps 729 mmHg 69%
    13:00 +8°C° 0.7 mm 11 mps 729 mmHg 73%
    14:00 +7°C° 0.7 mm 11 mps 729 mmHg 77%
    15:00 +7°C° 0.7 mm 12 mps 729 mmHg 82%
    16:00 +6°C° 1.8 mm 11 mps 729 mmHg 84%
    17:00 +6°C° 1.8 mm 10 mps 730 mmHg 87%
    18:00 +6°C° 1.8 mm 10 mps 730 mmHg 89%
    19:00 +6°C° 0.3 mm 9 mps 731 mmHg 89%
    20:00 +6°C° 0.3 mm 9 mps 732 mmHg 88%
    21:00 +6°C° 0.3 mm 8 mps 733 mmHg 88%
    22:00 +6°C° 0 mm 8 mps 733 mmHg 89%
    23:00 +6°C° 0 mm 8 mps 734 mmHg 89%

    26 April, Friday

    Time Temperature Precipitation Wind Pressure Humidity
    00:00 +6°C° 0 mm 7 mps 734 mmHg 89%
    01:00 +6°C° 0 mm 7 mps 734 mmHg 90%
    02:00 +6°C° 0 mm 7 mps 735 mmHg 91%
    03:00 +7°C° 0 mm 6 mps 735 mmHg 92%
    04:00 +7°C° 0.1 mm 6 mps 735 mmHg 92%
    05:00 +7°C° 0.1 mm 5 mps 735 mmHg 93%
    06:00 +7°C° 0.1 mm 5 mps 736 mmHg 94%
    07:00 +8°C° 0.2 mm 4 mps 736 mmHg 92%
    08:00 +10°C° 0.2 mm 4 mps 737 mmHg 90%
    09:00 +11°C° 0.2 mm 4 mps 737 mmHg 88%
    10:00 +10°C° 0.2 mm 5 mps 738 mmHg 85%
    11:00 +10°C° 0.2 mm 7 mps 739 mmHg 82%
    12:00 +11°C° 0.2 mm 8 mps 740 mmHg 79%
    13:00 +10°C° 0.1 mm 8 mps 740 mmHg 77%
    14:00 +8°C° 0.1 mm 9 mps 741 mmHg 75%
    15:00 +7°C° 0.1 mm 9 mps 742 mmHg 72%
    16:00 +7°C° 0 mm 8 mps 743 mmHg 71%
    17:00 +7°C° 0 mm 8 mps 744 mmHg 69%
    18:00 +6°C° 0 mm 7 mps 744 mmHg 68%
    19:00 +7°C° 0 mm 6 mps 745 mmHg 70%
    20:00 +5°C° 0 mm 6 mps 745 mmHg 72%
    21:00 +6°C° 0 mm 5 mps 745 mmHg 74%
    22:00 +5°C° 0.6 mm 6 mps 744 mmHg 80%
    23:00 +5°C° 0.6 mm 8 mps 743 mmHg 86%

    27 April, Saturday

    Time Temperature Precipitation Wind Pressure Humidity
    00:00 +5°C° 0.6 mm 10 mps 742 mmHg 92%
    01:00 +4°C° 0.7 mm 11 mps 741 mmHg 89%
    02:00 +4°C° 0.7 mm 12 mps 740 mmHg 87%
    03:00 +4°C° 0.7 mm 12 mps 740 mmHg 84%
    04:00 +4°C° 0 mm 12 mps 741 mmHg 80%
    05:00 +3°C° 0 mm 12 mps 741 mmHg 76%
    06:00 +2°C° 0 mm 12 mps 742 mmHg 71%
    07:00 +2°C° 0 mm 12 mps 744 mmHg 72%
    08:00 +3°C° 0 mm 11 mps 745 mmHg 73%
    09:00 +3°C° 0 mm 11 mps 746 mmHg 74%
    10:00 +5°C° 0.1 mm 10 mps 747 mmHg 73%
    11:00 +6°C° 0.1 mm 9 mps 749 mmHg 72%
    12:00 +7°C° 0.1 mm 8 mps 750 mmHg 72%
    13:00 +8°C° 0.1 mm 7 mps 750 mmHg 70%
    14:00 +9°C° 0.1 mm 7 mps 751 mmHg 68%
    15:00 +9°C° 0.1 mm 7 mps 751 mmHg 66%
    16:00 +9°C° 0 mm 6 mps 752 mmHg 67%
    17:00 +8°C° 0 mm 6 mps 752 mmHg 69%
    18:00 +8°C° 0 mm 5 mps 752 mmHg 70%
    19:00 +7°C° 0 mm 5 mps 753 mmHg 71%
    20:00 +7°C° 0 mm 5 mps 753 mmHg 73%
    21:00 +6°C° 0 mm 4 mps 753 mmHg 75%
    22:00 +6°C° 0.2 mm 5 mps 753 mmHg 79%
    23:00 +7°C° 0.2 mm 5 mps 753 mmHg 84%
    Show more